sat.trackr.live / text

‹ back to catalog

COSMOS 2518

NORAD 42719 · 2017-027A

PAYLOAD ACTIVE UNKNOWN

§ Identity

Operator
Country
CIS
Launch date
2017-05-25
Launch site
PLMSC
Launch vehicle
Mass (kg)
RCS (m²)

External: N2YO · Heavens-Above · Gunter

§ Orbital elements

Epoch: 2026-05-23T16:46:37.310880Z

Period
716.83 min
Inclination
63.0598°
Eccentricity
0.6985085
Mean motion
2.00884831 rev/d
Perigee alt
1,621.0 km
Apogee alt
38,686.7 km
Semi-major
26,532.0 km
B*
0.0000e+0
RAAN
251.3391°
Arg perigee
273.6369°
Mean anomaly
15.8328°
Rev number
6,591

§ Raw data

COSMOS 25181 42719U 17027A   26143.69904295 -.00001252  00000+0  00000+0 0  99992 42719  63.0598 251.3391 6985085 273.6369  15.8328  2.00884831 65919

JSON: /api/v1/satellites/42719 · /tle

For live sub-satellite position, see the globe view (requires WebGL).

§ Visibility from observer

Set your observer location to see the next 7 days of passes ≥ 10°. The values pass through the URL so the page stays shareable.

No JS? Fill the form by hand. The geolocation button needs JavaScript.